SITRO-AIS 11 (SHEFFER)

Last updated on Wed Oct 29 2025 00:03:53 GMT+0000 (Coordinated Universal Time)

1 57208U 23091AU 25301.65911483 .00021083 00000+0 75133-3 0 9990 2 57208 97.5423 3.2646 0008700 162.7220 197.4317 15.28909786129290
UTC large
Height (km)
Speed (km/s)
/
Latitude / Longitude
Inclination (degrees)
Orbital Period (minutes)
Azimuth
Elevation
Range (km)
Doppler Factor

Next 0 passes for location: London (51.5072 / 0.1276)

Sorry there are no passes over London.